Time,TemperatureF,DewpointF,PressureIn,WindDirection,WindDirectionDegrees,WindSpeedMPH,WindSpeedGustMPH,Humidity,HourlyPrecipIn,Conditions,Clouds,dailyrainin,SoftwareType,DateUTC
2013-08-23 00:01:00,85.1,69.0,29.96,SE,137,1.0,7.0,59,0.00,,,0.00,weatherlink.com 1.10,2013-08-23 05:01:00,
2013-08-23 00:16:00,84.7,69.0,29.96,SSE,155,2.0,6.0,60,0.00,,,0.00,weatherlink.com 1.10,2013-08-23 05:16:00,
2013-08-23 00:31:00,84.3,69.0,29.96,SE,129,3.0,7.0,61,0.00,,,0.00,weatherlink.com 1.10,2013-08-23 05:31:00,
2013-08-23 00:46:00,83.9,69.0,29.96,South,173,2.0,6.0,61,0.00,,,0.00,weatherlink.com 1.10,2013-08-23 05:46:00,
2013-08-23 01:01:00,84.1,69.0,29.96,SE,139,0.0,3.0,60,0.00,,,0.00,weatherlink.com 1.10,2013-08-23 06:01:00,
2013-08-23 01:16:00,83.6,69.0,29.96,SE,131,3.0,5.0,62,0.00,,,0.00,weatherlink.com 1.10,2013-08-23 06:16:00,
2013-08-23 01:31:00,83.0,69.0,29.96,South,173,3.0,7.0,62,0.00,,,0.00,weatherlink.com 1.10,2013-08-23 06:31:00,
2013-08-23 01:47:00,82.9,69.0,29.96,South,170,3.0,4.0,63,0.00,,,0.00,weatherlink.com 1.10,2013-08-23 06:47:00,
2013-08-23 02:01:00,82.6,69.0,29.95,South,169,0.0,5.0,63,0.00,,,0.00,weatherlink.com 1.10,2013-08-23 07:01:00,
2013-08-23 02:16:00,82.2,69.0,29.95,South,179,1.0,4.0,65,0.00,,,0.00,weatherlink.com 1.10,2013-08-23 07:16:00,
2013-08-23 02:31:00,81.7,69.0,29.95,SSE,163,1.0,5.0,66,0.00,,,0.00,weatherlink.com 1.10,2013-08-23 07:31:00,
2013-08-23 02:46:00,81.6,69.0,29.95,SSE,167,0.0,5.0,66,0.00,,,0.00,weatherlink.com 1.10,2013-08-23 07:46:00,
2013-08-23 03:01:00,81.4,69.0,29.95,SSE,157,2.0,6.0,66,0.00,,,0.00,weatherlink.com 1.10,2013-08-23 08:01:00,
2013-08-23 03:16:00,81.6,69.0,29.95,South,170,3.0,8.0,66,0.00,,,0.00,weatherlink.com 1.10,2013-08-23 08:16:00,
2013-08-23 03:31:00,81.6,69.0,29.95,SE,127,1.0,7.0,65,0.00,,,0.00,weatherlink.com 1.10,2013-08-23 08:31:00,
2013-08-23 03:46:00,81.4,69.0,29.95,SSE,156,3.0,6.0,66,0.00,,,0.00,weatherlink.com 1.10,2013-08-23 08:46:00,
2013-08-23 04:01:00,81.2,69.0,29.95,SSE,164,1.0,5.0,67,0.00,,,0.00,weatherlink.com 1.10,2013-08-23 09:01:00,
2013-08-23 04:16:00,80.9,69.0,29.95,SSE,158,1.0,4.0,67,0.00,,,0.00,weatherlink.com 1.10,2013-08-23 09:16:00,
2013-08-23 04:31:00,80.7,69.0,29.95,SSE,165,0.0,3.0,68,0.00,,,0.00,weatherlink.com 1.10,2013-08-23 09:31:00,
2013-08-23 04:46:00,80.2,69.0,29.96,SE,137,1.0,3.0,69,0.00,,,0.00,weatherlink.com 1.10,2013-08-23 09:46:00,
2013-08-23 05:01:00,79.7,69.0,29.96,SSE,166,0.0,7.0,70,0.00,,,0.00,weatherlink.com 1.10,2013-08-23 10:01:00,
2013-08-23 05:16:00,79.1,69.0,29.96,SE,135,2.0,5.0,72,0.00,,,0.00,weatherlink.com 1.10,2013-08-23 10:16:00,
2013-08-23 05:31:00,78.9,69.0,29.96,SSE,155,1.0,4.0,72,0.00,,,0.00,weatherlink.com 1.10,2013-08-23 10:31:00,
2013-08-23 05:46:00,78.7,69.0,29.96,SE,131,1.0,4.0,73,0.00,,,0.00,weatherlink.com 1.10,2013-08-23 10:46:00,
2013-08-23 06:01:00,78.6,69.0,29.96,SE,131,0.0,2.0,73,0.00,,,0.00,weatherlink.com 1.10,2013-08-23 11:01:00,
2013-08-23 06:16:00,78.5,70.0,29.96,SE,132,0.0,2.0,74,0.00,,,0.00,weatherlink.com 1.10,2013-08-23 11:16:00,
2013-08-23 06:31:00,78.5,70.0,29.97,SSE,154,1.0,4.0,74,0.00,,,0.00,weatherlink.com 1.10,2013-08-23 11:31:00,
2013-08-23 06:46:00,78.5,70.0,29.98,South,171,1.0,3.0,74,0.00,,,0.00,weatherlink.com 1.10,2013-08-23 11:46:00,
2013-08-23 07:01:00,78.2,70.0,29.98,SSE,168,2.0,6.0,75,0.00,,,0.00,weatherlink.com 1.10,2013-08-23 12:01:00,
2013-08-23 07:16:00,78.2,70.0,29.98,ESE,112,2.0,5.0,75,0.00,,,0.00,weatherlink.com 1.10,2013-08-23 12:16:00,
2013-08-23 07:31:00,78.4,70.0,29.99,SSE,165,1.0,4.0,75,0.00,,,0.00,weatherlink.com 1.10,2013-08-23 12:31:00,
2013-08-23 07:46:00,78.9,70.0,29.99,South,169,0.0,3.0,74,0.00,,,0.00,weatherlink.com 1.10,2013-08-23 12:46:00,
2013-08-23 08:01:00,79.3,70.0,29.99,SSE,157,1.0,2.0,74,0.00,,,0.00,weatherlink.com 1.10,2013-08-23 13:01:00,
2013-08-23 08:16:00,79.7,71.0,30.00,SSE,151,1.0,2.0,74,0.00,,,0.00,weatherlink.com 1.10,2013-08-23 13:16:00,
2013-08-23 08:31:00,80.1,71.0,30.00,SSE,157,0.0,3.0,74,0.00,,,0.00,weatherlink.com 1.10,2013-08-23 13:31:00,
2013-08-23 08:46:00,80.6,72.0,30.01,SSE,166,2.0,3.0,74,0.00,,,0.00,weatherlink.com 1.10,2013-08-23 13:46:00,
2013-08-23 09:01:00,82.8,73.0,30.00,SSE,156,0.0,3.0,71,0.00,,,0.00,weatherlink.com 1.10,2013-08-23 14:01:00,
2013-08-23 09:17:00,85.0,73.0,30.00,SSE,158,1.0,3.0,68,0.00,,,0.00,weatherlink.com 1.10,2013-08-23 14:17:00,
2013-08-23 09:32:00,86.4,74.0,30.00,South,180,0.0,4.0,66,0.00,,,0.00,weatherlink.com 1.10,2013-08-23 14:32:00,
2013-08-23 09:47:00,86.7,74.0,30.00,South,180,0.0,3.0,65,0.00,,,0.00,weatherlink.com 1.10,2013-08-23 14:47:00,
2013-08-23 10:02:00,86.5,74.0,30.00,South,169,3.0,4.0,66,0.00,,,0.00,weatherlink.com 1.10,2013-08-23 15:02:00,
2013-08-23 10:17:00,86.5,74.0,30.00,South,174,4.0,4.0,67,0.00,,,0.00,weatherlink.com 1.10,2013-08-23 15:17:00,
2013-08-23 10:32:00,87.0,74.0,30.00,SSE,159,0.0,5.0,66,0.00,,,0.00,weatherlink.com 1.10,2013-08-23 15:32:00,
2013-08-23 10:47:00,88.4,74.0,30.00,SSE,166,3.0,5.0,63,0.00,,,0.00,weatherlink.com 1.10,2013-08-23 15:47:00,
2013-08-23 11:02:00,90.2,73.0,30.00,SSE,150,1.0,5.0,58,0.00,,,0.00,weatherlink.com 1.10,2013-08-23 16:02:00,
2013-08-23 11:17:00,91.6,73.0,30.00,South,171,2.0,4.0,55,0.00,,,0.00,weatherlink.com 1.10,2013-08-23 16:17:00,
2013-08-23 11:32:00,91.3,73.0,29.99,South,187,0.0,5.0,55,0.00,,,0.00,weatherlink.com 1.10,2013-08-23 16:32:00,
2013-08-23 11:47:00,93.1,73.0,29.99,SSE,167,1.0,5.0,53,0.00,,,0.00,weatherlink.com 1.10,2013-08-23 16:47:00,
2013-08-23 12:02:00,93.5,73.0,29.99,SSE,151,2.0,3.0,52,0.00,,,0.00,weatherlink.com 1.10,2013-08-23 17:02:00,
2013-08-23 12:17:00,94.0,73.0,29.98,SSE,166,4.0,5.0,50,0.00,,,0.00,weatherlink.com 1.10,2013-08-23 17:17:00,
2013-08-23 12:32:00,93.7,72.0,29.98,SW,214,1.0,5.0,49,0.00,,,0.00,weatherlink.com 1.10,2013-08-23 17:32:00,
2013-08-23 12:47:00,94.0,71.0,29.98,SE,132,0.0,3.0,48,0.00,,,0.00,weatherlink.com 1.10,2013-08-23 17:47:00,
2013-08-23 13:02:00,94.5,72.0,29.97,SE,127,0.0,3.0,48,0.00,,,0.00,weatherlink.com 1.10,2013-08-23 18:02:00,
2013-08-23 13:17:00,95.1,71.0,29.97,South,169,1.0,5.0,46,0.00,,,0.00,weatherlink.com 1.10,2013-08-23 18:17:00,
2013-08-23 13:32:00,95.9,71.0,29.96,West,263,0.0,5.0,44,0.00,,,0.00,weatherlink.com 1.10,2013-08-23 18:32:00,
2013-08-23 13:47:00,96.3,72.0,29.95,South,173,0.0,3.0,46,0.00,,,0.00,weatherlink.com 1.10,2013-08-23 18:47:00,
2013-08-23 14:02:00,96.3,71.0,29.95,WSW,244,0.0,4.0,44,0.00,,,0.00,weatherlink.com 1.10,2013-08-23 19:02:00,
2013-08-23 14:17:00,96.7,71.0,29.93,WNW,295,0.0,3.0,43,0.00,,,0.00,weatherlink.com 1.10,2013-08-23 19:17:00,
2013-08-23 14:32:00,97.4,71.0,29.93,SW,216,1.0,4.0,43,0.00,,,0.00,weatherlink.com 1.10,2013-08-23 19:32:00,
2013-08-23 14:47:00,98.0,69.0,29.92,WNW,289,0.0,4.0,39,0.00,,,0.00,weatherlink.com 1.10,2013-08-23 19:47:00,
2013-08-23 15:02:00,98.2,70.0,29.91,South,171,2.0,3.0,40,0.00,,,0.00,weatherlink.com 1.10,2013-08-23 20:02:00,
2013-08-23 15:17:00,99.5,70.0,29.90,NW,311,1.0,4.0,38,0.00,,,0.00,weatherlink.com 1.10,2013-08-23 20:17:00,
2013-08-23 15:32:00,99.4,70.0,29.90,ENE,62,0.0,3.0,39,0.00,,,0.00,weatherlink.com 1.10,2013-08-23 20:32:00,
2013-08-23 15:47:00,98.7,70.0,29.89,West,271,0.0,6.0,39,0.00,,,0.00,weatherlink.com 1.10,2013-08-23 20:47:00,
2013-08-23 16:02:00,98.3,69.0,29.89,South,182,0.0,3.0,38,0.00,,,0.00,weatherlink.com 1.10,2013-08-23 21:02:00,
2013-08-23 16:18:00,99.1,69.0,29.88,SW,227,0.0,3.0,38,0.00,,,0.00,weatherlink.com 1.10,2013-08-23 21:18:00,
2013-08-23 16:33:00,100.0,70.0,29.88,SSE,165,0.0,4.0,38,0.00,,,0.00,weatherlink.com 1.10,2013-08-23 21:33:00,
2013-08-23 16:48:00,99.4,68.0,29.88,NNE,27,1.0,8.0,36,0.00,,,0.00,weatherlink.com 1.10,2013-08-23 21:48:00,
2013-08-23 17:03:00,100.9,68.0,29.87,SSE,158,0.0,8.0,34,0.00,,,0.00,weatherlink.com 1.10,2013-08-23 22:03:00,
2013-08-23 17:18:00,100.9,67.0,29.88,SSE,147,2.0,2.0,33,0.00,,,0.00,weatherlink.com 1.10,2013-08-23 22:18:00,
2013-08-23 17:33:00,101.2,68.0,29.87,SE,136,2.0,4.0,34,0.00,,,0.00,weatherlink.com 1.10,2013-08-23 22:33:00,
2013-08-23 17:48:00,101.3,68.0,29.87,SSE,166,1.0,3.0,34,0.00,,,0.00,weatherlink.com 1.10,2013-08-23 22:48:00,
2013-08-23 18:03:00,100.1,65.0,29.87,ESE,107,0.0,4.0,32,0.00,,,0.00,weatherlink.com 1.10,2013-08-23 23:03:00,
2013-08-23 18:18:00,95.6,68.0,29.88,NE,39,6.0,16.0,41,0.00,,,0.00,weatherlink.com 1.10,2013-08-23 23:18:00,
2013-08-23 18:33:00,91.0,68.0,29.87,ENE,64,2.0,10.0,47,0.00,,,0.00,weatherlink.com 1.10,2013-08-23 23:33:00,
2013-08-23 18:48:00,90.1,68.0,29.87,NNE,30,1.0,10.0,48,0.00,,,0.00,weatherlink.com 1.10,2013-08-23 23:48:00,
2013-08-23 19:03:00,89.9,68.0,29.87,NE,43,0.0,6.0,48,0.00,,,0.00,weatherlink.com 1.10,2013-08-24 00:03:00,
2013-08-23 19:18:00,90.3,67.0,29.87,NNE,25,0.0,5.0,46,0.00,,,0.00,weatherlink.com 1.10,2013-08-24 00:18:00,
2013-08-23 19:33:00,90.2,67.0,29.87,NNE,25,0.0,6.0,46,0.00,,,0.00,weatherlink.com 1.10,2013-08-24 00:33:00,
2013-08-23 19:48:00,89.5,67.0,29.87,NNE,28,1.0,6.0,47,0.00,,,0.00,weatherlink.com 1.10,2013-08-24 00:48:00,
2013-08-23 20:03:00,88.7,67.0,29.88,ENE,66,0.0,5.0,48,0.00,,,0.00,weatherlink.com 1.10,2013-08-24 01:03:00,
2013-08-23 20:18:00,87.9,66.0,29.89,ENE,74,1.0,5.0,49,0.00,,,0.00,weatherlink.com 1.10,2013-08-24 01:18:00,
2013-08-23 20:33:00,87.1,67.0,29.89,ENE,62,3.0,6.0,51,0.00,,,0.00,weatherlink.com 1.10,2013-08-24 01:33:00,
2013-08-23 20:48:00,86.5,67.0,29.90,ENE,59,2.0,4.0,52,0.00,,,0.00,weatherlink.com 1.10,2013-08-24 01:48:00,
2013-08-23 21:03:00,85.9,67.0,29.91,North,5,5.0,5.0,54,0.00,,,0.00,weatherlink.com 1.10,2013-08-24 02:03:00,
2013-08-23 21:18:00,85.2,67.0,29.91,ENE,67,0.0,4.0,55,0.00,,,0.00,weatherlink.com 1.10,2013-08-24 02:18:00,
2013-08-23 21:33:00,84.7,68.0,29.92,ENE,72,0.0,4.0,57,0.00,,,0.00,weatherlink.com 1.10,2013-08-24 02:33:00,
2013-08-23 21:48:00,84.3,68.0,29.92,NE,35,1.0,3.0,58,0.00,,,0.00,weatherlink.com 1.10,2013-08-24 02:48:00,
2013-08-23 22:03:00,83.9,68.0,29.93,NE,36,1.0,2.0,59,0.00,,,0.00,weatherlink.com 1.10,2013-08-24 03:03:00,
2013-08-23 22:18:00,83.7,68.0,29.93,ESE,107,2.0,4.0,59,0.00,,,0.00,weatherlink.com 1.10,2013-08-24 03:18:00,
2013-08-23 22:33:00,83.6,68.0,29.94,East,90,1.0,5.0,60,0.00,,,0.00,weatherlink.com 1.10,2013-08-24 03:33:00,
2013-08-23 22:48:00,83.8,68.0,29.94,East,79,2.0,5.0,60,0.00,,,0.00,weatherlink.com 1.10,2013-08-24 03:48:00,
2013-08-23 23:03:00,84.3,68.0,29.94,ESE,121,4.0,8.0,59,0.00,,,0.00,weatherlink.com 1.10,2013-08-24 04:03:00,
2013-08-23 23:18:00,84.2,68.0,29.93,SE,138,1.0,8.0,59,0.00,,,0.00,weatherlink.com 1.10,2013-08-24 04:18:00,
2013-08-23 23:33:00,83.9,68.0,29.93,ESE,102,0.0,6.0,59,0.00,,,0.00,weatherlink.com 1.10,2013-08-24 04:33:00,
2013-08-23 23:48:00,83.4,68.0,29.93,East,90,1.0,3.0,60,0.00,,,0.00,weatherlink.com 1.10,2013-08-24 04:48:00,